Regional Weather Roundup
Issued by NWS

Home | Current Version | Previous Version | Text Only | Print | Product List | Glossary On
Versions: 1 2 3 4 5 6 7 8 9 10 11 12 13 14 15 16 17 18 19 20 21 22 23 24 25 26 27 28 29 30 31 32 33 34 35 36 37 38 39 40 41 42 43 44 45 46 47 48 49 50
000
ASUS42 KFFC 290203
RWRGA
WEATHER ROUNDUP FOR GEORGIA
NATIONAL WEATHER SERVICE PEACHTREE CITY GA
900 PM EST SUN DEC 28 2014

NOTE: "FAIR" INDICATES FEW OR NO CLOUDS BELOW 12,000 FEET WITH NO
SIGNIFICANT WEATHER AND/OR OBSTRUCTIONS TO VISIBILITY.

* = USE WITH CAUTION. THE STATIONS MARKED WITH AN ASTERISK MAY NOT
REPORT WEATHER SUCH AS PRECIPITATION, FOG, OR THUNDER AND ARE NOT
QUALITY CONTROLLED BY NWS.

THE REMARK "TC" DENOTES TEMPERATURE READING IN DEGREES CELSIUS.

GAZ001>058-290300-
NORTH GEORGIA

CITY           SKY/WX    TMP DP  RH WIND       PRES   REMARKS
ATLANTA        DRIZZLE   61  57  88 NW7       30.06F FOG
ATHENS         FOG       57  56  96 NW3       30.06F VSB 1
CHAMBLEE       CLOUDY    58  56  93 N5        30.07F
PEACHTREE CITY CLOUDY    59  59 100 N6        30.06F FOG
ROME           CLOUDY    57  54  89 N6        30.08R
WEST ATLANTA   CLOUDY    59  57  93 N5        30.06F
GAINESVILLE    CLOUDY    56  54  93 W5        30.08F
CARTERSVILLE   CLOUDY    56  55  97 CALM      30.08F


CITY           SKY/WX    TMP DP  RH WIND       PRES   REMARKS
DALTON*        CLOUDY    54  54 100 N7        30.10S
LAWRENCEVILLE* CLOUDY    57  50  77 CALM      30.06F
KENNESAW*      CLOUDY    57  54  88 CALM      30.09S
$$

GAZ059>098-102>109-290300-
CENTRAL GEORGIA

CITY           SKY/WX    TMP DP  RH WIND       PRES   REMARKS
AUGUSTA-BUSH   MOCLDY    59  58  96 CALM      30.06S
AUGUSTA-DANIEL CLOUDY    63  60  90 S5        30.07S
COLUMBUS       CLOUDY    61  61 100 CALM      30.04R
MACON          LGT RAIN  63  63 100 CALM      30.04F FOG
ROBINS AFB     DRIZZLE   63  62  95 N1        30.05S


CITY           SKY/WX    TMP DP  RH WIND       PRES   REMARKS
LAGRANGE*      CLOUDY    64  64  98 CALM      30.05S
SYLVANIA*      PTCLDY    63  63 100 CALM      30.08S
MILLEDGEVILLE* FOG       61  61 100 CALM      30.06S VSB 1
$$

GAZ099>101-110>166-290300-
SOUTH GEORGIA

CITY           SKY/WX    TMP DP  RH WIND       PRES   REMARKS
SAVANNAH       PTCLDY    66  62  87 S5        30.08R
VALDOSTA       CLEAR     61  60  97 S6        30.09S
ALMA           CLEAR     66  61  84 S5        30.07S
ST SIMONS      MOCLDY    64  60  87 CALM      30.10R
FT STEWART     PTCLDY    66  63  89 CALM      30.06S
ALBANY         CLOUDY    67  64  90 S6        30.07R
HUNTER AFB     PTCLDY    65  64  96 S5        30.06S
MOODY AFB      CLEAR     60  58  93 S6        30.08S
BRUNSWICK      MOCLDY    64  63  94 SW3       30.10S


CITY           SKY/WX    TMP DP  RH WIND       PRES   REMARKS
BAINBRIDGE*    MOCLDY    70  66  88 S3        30.07R
MOULTRIE*      CLOUDY    64  64 100 S5        30.08S
VIDALIA*       MOCLDY    63  63 100 CALM      30.08R
WAYCROSS*      CLEAR     66  64  94 SW6       30.08F
DOUGLAS*       PTCLDY    68  61  77 S3        30.09R
$$


USA.gov is the U.S. government's official web portal to all federal, state and local government web resources and services.